SCOUT B R/B, 2206

Orbit data source: Space-Track

SCOUT B R/B, 2206 is space debris in LEO originally from a launch on Fri, 10 Jun 1966 UTC launched from the Wallops Island (WLPIS). Debris objects in space refer to the collection of defunct objects orbiting the Earth. Examples of debris include non-operational satellites, rocket bodies, and fragments generated from explosions, collisions, or faulty payload assembly.

Loading next visibility...
Identifier
2206, 1966-052B
Orbit
LEO
Country
Flag of USUS
Related business
Manufacturer
UTC
Mission
Spacecraft
Bus & Motor
FW4, Unknown motor
Mass
47 kg wet, 47 kg dry
Launch date (UTC)
1966-06-10 (60 years ago)
Launch vehicle
Unknown
Launch site
Wallops Island (WLPIS)
Object type
Payload
Rocket body
Debris
Shape & HBR
Unknown
Radar Cross Section
Medium (>0.1 m² and <1 m²)

Expand to show TLE details & history
Last TLE update: 11 hours ago

TLE from 11 hours ago
0 SCOUT B R/B
1  2206U 66052B   26036.37859966  .00000563  00000-0  82530-3 0  9994
2  2206  40.8688   6.1476 2213036 332.9084  17.1183 10.14570791189392
Epoch: 2026-02-05T09:05Z
TLE epoch observation values (Epoch: 2026-02-05T09:05:11.010Z)
Latitude
-0.00006°
Longitude
94.31997°
Altitude
783.468 km
Speed
8.193 km/s
True Right ascension
00h 24m 35s
True Declination
0° 00' 00"
Sunlit
Object was in daylight at epoch
Visualization orbit readout
Latitude
Unknown
Longitude
Unknown
Altitude
Unknown
Speed
Unknown
Apparent Right ascension
Unknown
Apparent Declination
Unknown
Sunlit
N/A
Visualization observer readout
Local Sidereal Time
21:52:42
Azimuth
Unknown
Elevation
Unknown
Doppler factor
Unknown
Orbital elements
Apogee altitude
4,632.058 km
Perigee altitude
641.902 km
Semi-major axis
9,015.117 km
Eccentricity
0.2213
Inclination
40.8688°
RAAN
6.1476°
Arg. of periapsis
332.9084°
True anomaly
27.15969°
Mean anomaly
17.1183°
Eccentric anomaly
21.83418°
Mean motion
2.53563 °/min
Orbital period
141.98 mins
BSTAR
0.0008253
Loading maneuver chart data...
Computing Atmospheric mass density...
Loading historical data...
Loading historical data...
Loading historical data...
Loading historical data...
Loading historical data...
Loading historical data...
Loading historical data...
Other satellites on launch #52 in the year 1966 (1966-06-10 UTC)

Documentation

Showing up to 5 results
|